08:31
Airports
History
Links
Donate
Help keep this website running!
PayPal
Bitcoin
Information on this page is community maintained and may be outdated or inaccurate and is intended for reference only or PC simulator navigating.
Always use approved charts for navigating.
LEVB
Aerodrom - Villafranca de Bonany
Aerodrom - Villafranca de Bonany (LEVB)
Vilafranca de Bonany, Balearic Islands, Spain (7250)
4
Lat/Lng:39° 34' 38.05" N / 3° 7' 35.06" E
39.577235 / 3.126405
Elevation:236'ft 72mMSL
ID / ICAO:LEVB
Runways:1
Longest:(7-25) 466.7m 1,531ft Grass
Distance To
Airport ID:
Nearby VORs <50NM
Nearby NDBs
Nearby WeatherUpdated 07-24-17 08:00 GMT
Nearby weather at LEPA, Palma De Mallorca located 20.9 nautical miles from LEVB
Altimeter: 30.00
Visibility: 6.2 statute miles
Wind: 0 knots (000°)
Temp: 28°c 82°f
Humidity: 69.9%

METAR: LEPA 240800Z 00000KT 9999 FEW012 28/22 Q1016 BECMG 22010KT

(Powered by phpweather)
Runway 7 / 25
Dimensions:466.7 x 35.1m 1531' x 115'ft
Surface:Grass
Runway 7 [A]Runway 25 [B]
Heading:061°TH 241°TH
Lat:
Lng:
39° 34' 34.43"N
3° 7' 26.37"E
39° 34' 41.66"N
3° 7' 43.74"E
User Notes and Comments
Google Map
Nearby Airports
(C) Palma De Mallorca 20.9 NM
LEPA (WX) W 265°
(C) Son Bonet 22.6 NM
LESB W 273°
4 Cala'n Blanes Menorca 46.7 NM
LEWL NE 51°
(C) Menorca 61.3 NM
LEMH (WX) ENE 71°
(U) SAN LUIS 63.3 NM
LESL ENE 71°
(C) Ibiza 105.7 NM
LEIB (WX) WSW 242°
(C) Barcelona El Prat 130.8 NM
LEBL (WX) NNW 335°
VFR Chart
Flight Planning at SkyVector.com